Zurück zum Katalog

STARLINK-36882

AktivKommunikationSSO
NORAD 67980·PAYLOAD·🇺🇸 United States

Gestartet Feb 25, 2026 von Vandenberg Space Force Base

Loading…

Nächste Überflüge (nächste 24 Stunden)

TLE

AktuellSource: CelesTrak SupGP

Epoche: Sep 15, 2026, 03:11 UTC

1 67980C 26038V   26258.13312500 -.00055064  00000+0 -17095-2 0  2580
2 67980  97.2842 266.5964 0001592  93.9047 281.1388 15.33463188    15

Verfolge STARLINK-36882 in Echtzeit mit AllMySat

Download on the App Store